Regional Weather Roundup
Issued by NWS

Home | Current Version | Previous Version | Graphics & Text | Print | Product List | Glossary On
Versions: 1 2 3 4 5 6 7 8 9 10 11 12 13 14 15 16 17 18 19 20 21 22 23 24 25 26 27 28 29 30 31 32 33 34 35 36 37 38 39 40 41 42 43 44 45 46 47 48 49 50
000
ASUS43 KMPX 282010
RWRMN
WEATHER ROUNDUP FOR MINNESOTA
NATIONAL WEATHER SERVICE TWIN CITIES/CHANHASSEN MN
300 PM CDT TUE MAR 28 2017


NOTE: "FAIR" INDICATES FEW OR NO CLOUDS BELOW 12,000 FEET WITH NO
SIGNIFICANT WEATHER AND/OR OBSTRUCTIONS TO VISIBILITY. N/A MEANS
CURRENT SKY AND/OR WEATHER CONDITIONS ARE NOT AVAILABLE.

MNZ060>063-068>070-282100-
   Twin Cities Metro

CITY           SKY/WX    TMP DP  RH WIND       PRES   REMARKS
TWIN CITIES    MOSUNNY   62  31  31 CALM      30.14F
ST PAUL        SUNNY     62  32  32 VRB5      30.14F
CRYSTAL        MOSUNNY   63  27  25 N7        30.13F
BLAINE         MOSUNNY   63  27  25 NE6       30.15S
LAKEVILLE      SUNNY     59  34  38 CALM      30.13F
EDEN PRAIRIE   SUNNY     63  31  30 W3        30.13S
SOUTH ST PAUL  SUNNY     61  32  33 S3        30.14S
LAKE ELMO      FAIR      61  34  36 CALM      30.15F
$$
MNZ001>005-007-008-013>017-022>024-027-028-282100-
   Northwest Minnesota

CITY           SKY/WX    TMP DP  RH WIND       PRES   REMARKS
BEMIDJI        SUNNY     57  31  36 N3        30.16S
HALLOCK        CLOUDY    46  41  81 NW10      30.21F
ROSEAU         MOSUNNY   52  37  58 SE8       30.20S
WARROAD        SUNNY     43  34  70 E8        30.22S
THIEF RVR FALL PTSUNNY   53  33  46 N3        30.20S
CROOKSTON      CLOUDY    54  45  71 N6        30.19F
FOSSTON        CLOUDY    57  41  54 N5        30.18R
DETROIT LAKES  PTSUNNY   57  34  41 CALM      30.16F
MOORHEAD       MOSUNNY   54  41  62 NW3       30.18F
PARK RAPIDS    MOSUNNY   60  28  29 VRB3      30.14S
MAHNOMEN       FAIR      57  34  42 CALM      30.16S
$$
MNZ006-009>011-018-025>026-282100-
   North Central Minnesota

CITY           SKY/WX    TMP DP  RH WIND       PRES   REMARKS
BAUDETTE       SUNNY     52  31  44 NW13      30.19S
FLAG ISLAND    SUNNY     43  25  49 N9        30.21F
INTL FALLS     SUNNY     51  29  42 NE6       30.18S
WASKISH        MOSUNNY   54  36  50 W7        30.17S
BIG FORK       SUNNY     57  28  33 CALM      30.15F
LONGVILLE      SUNNY     59  28  31 CALM      30.15S
GRAND RAPIDS   SUNNY     58  30  34 NW6       30.17S
CRANE LAKE     SUNNY     52  27  37 N5        30.19S
ORR            SUNNY     55  25  30 CALM      30.14S
COOK           MOSUNNY   55  28  35 NW5       30.16S
WALKER         FAIR      55  30  38 E6        30.16S
$$
MNZ012-019>021-037-282100-
   Northeast Minnesota

CITY           SKY/WX    TMP DP  RH WIND       PRES   REMARKS
DULUTH         MOSUNNY   58  29  33 VRB3      30.14F
ELY            SUNNY     55  25  30 CALM      30.15F
HIBBING        SUNNY     56  30  37 N6        30.14F
EVELETH        SUNNY     58  22  25 W7        30.15F
DULUTH HARBOR  SUNNY     48  34  57 CALM      30.16S
TWO HARBORS    SUNNY     61  37  41 S7        30.13S
SILVER BAY     MOSUNNY   57  28  33 S8        30.12F
GRAND MARAIS     N/A     40  32  73 NE7       30.20S
G MARAIS ARPRT MOSUNNY   45  27  49 SE6       30.17S
$$
MNZ029>031-032-039>041-046>048-054>057-064-282100-
   West Central Minnesota

CITY           SKY/WX    TMP DP  RH WIND       PRES   REMARKS
FERGUS FALLS   MOSUNNY   57  41  54 W5        30.19S
WHEATON        MOSUNNY   55  37  50 N3        30.17F
MORRIS         MOSUNNY   63  37  39 NE6       30.13F
ALEXANDRIA     MOSUNNY   61  34  36 N5        30.14F
ELBOW LAKE     FAIR      56  40  53 NW3       30.16S
WADENA         SUNNY     61  34  36 CALM      30.14S
GLENWOOD       CLOUDY    63  34  34 CALM      30.15F
APPLETON       MOSUNNY   61  34  36 E6        30.14F
BENSON         PTSUNNY   64  28  25 CALM      30.16F
ORTONVILLE     MOSUNNY   59  37  44 NE3       30.14F
MADISON        CLOUDY    61  39  44 NE3       30.14F
WILLMAR        FAIR      61  34  36 NE7       30.16F
$$
MNZ033>034-036-042>043-049>051-058-059-282100-
   Central Minnesota

CITY           SKY/WX    TMP DP  RH WIND       PRES   REMARKS
ST CLOUD       MOSUNNY   60  28  29 VRB3      30.15F
SAUK CENTRE    FAIR      60  32  35 CALM      30.14F
PAYNESVILLE    MOSUNNY   59  32  36 SE5       30.16S
AITKIN         SUNNY     63  21  20 CALM      30.13F
PINE RIVER     SUNNY     61  34  36 SW5       30.17S
BRAINERD       SUNNY     61  31  32 VRB5      30.15S
STAPLES        SUNNY     61  25  25 W5        30.14S
LONG PRAIRIE   FAIR      59  34  38 NE3       30.15F
LITTLE FALLS   SUNNY     59  30  33 W3        30.15F
LITCHFIELD     MOSUNNY   61  30  31 NE6       30.15F
BUFFALO        MOSUNNY   60  27  27 E5        30.16S
MAPLE LAKE     MOSUNNY   62  30  30 NE5       30.16F
HUTCHINSON     SUNNY     60  33  35 CALM      30.16S
$$
MNZ037-044-045-052-053-282100-
   East Central Minnesota

CITY           SKY/WX    TMP DP  RH WIND       PRES   REMARKS
PRINCETON      MOSUNNY   63  28  27 SW3       30.15F
MORA           SUNNY     59  30  33 SW3       30.17S
CAMBRIDGE      MOSUNNY   61  37  41 SE5       30.14S
RUSH CITY      SUNNY     59  28  31 W3        30.15S
MOOSE LAKE     SUNNY     61  30  31 SW6       30.13S
CLOQUET        MOSUNNY   61  21  21 N7        30.14S
MCGREGOR       SUNNY     61  32  33 NW5       30.14F
$$
MNZ071>073-080-081-089-090-097-098-282100-
   Southwest Minnesota

CITY           SKY/WX    TMP DP  RH WIND       PRES   REMARKS
MONTEVIDEO     CLOUDY    63  34  34 SE6       30.14F
GRANITE FALLS  MOSUNNY   62  36  36 E6        30.15F
CANBY          CLOUDY    61  35  37 CALM      30.14F
MARSHALL       PTSUNNY   59  35  40 E8        30.13F
REDWOOD FALLS  PTSUNNY   61  34  36 SE3       30.13F
OLIVIA         PTSUNNY   59  34  38 E7        30.14F
PIPESTONE      CLOUDY    57  30  35 SE7       30.10F
WINDOM         SUNNY     61  34  36 NE10G16   30.12F
WORTHINGTON    SUNNY     57  37  47 E10       30.11F
JACKSON          N/A     59  32  36 E12G17    30.12F
TRACY          PTSUNNY   59  38  45 NE7       30.13F
SLAYTON        CLOUDY    57  39  52 E8        30.12F
$$
MNZ065>067-074>077-082>085-091>093-282100-
   South Central Minnesota

CITY           SKY/WX    TMP DP  RH WIND       PRES   REMARKS
MANKATO        SUNNY     60  36  40 E7        30.13F
NEW ULM        SUNNY     61  30  31 E7        30.13F
ST JAMES       SUNNY     59  36  41 E5        30.14F
FAIRMONT       SUNNY     57  38  48 E6G17     30.13F
GLENCOE        SUNNY     62  34  34 CALM      30.14F
FARIBAULT      SUNNY     61  39  44 SE3       30.14F
OWATONNA       SUNNY     57  37  47 NE7       30.14F
WASECA         SUNNY     55  36  47 NE5       30.14F
ALBERT LEA     SUNNY     55  36  47 NE9       30.13F
$$
MNZ078>079-086>088-094>096-282100-
   Southeast Minnesota

CITY           SKY/WX    TMP DP  RH WIND       PRES   REMARKS
ROCHESTER      SUNNY     56  40  55 E8        30.15F
RED WING       SUNNY     61  36  39 S6        30.13F
STANTON        SUNNY     60  38  43 NE3       30.13F
DODGE CENTER   SUNNY     55  39  54 NE5       30.14F
WINONA         SUNNY     55  39  54 CALM      30.15F
AUSTIN         SUNNY     55  39  54 NE9       30.13F
PRESTON        SUNNY     55  37  51 N7        30.14F
$$
ABBREVIATIONS USED IN REMARKS
   TC - TEMPERATURES IN CELSIUS
  WCI - WIND CHILL INDEX
   HX - HEAT INDEX
  VSB - VISIBILITY
$$



USA.gov is the U.S. government's official web portal to all federal, state and local government web resources and services.